sat.trackr.live / text

‹ back to catalog

AETHER-9

NORAD 67380 · 2026-004T

PAYLOAD ACTIVE UNKNOWN

§ Identity

Operator
Country
CA
Launch date
2026-01-11
Launch site
AFWTR
Launch vehicle
Mass (kg)
RCS (m²)

External: N2YO · Heavens-Above · Gunter

§ Orbital elements

Epoch: 2026-09-20T22:35:03.903360Z

Period
96.91 min
Inclination
97.8073°
Eccentricity
0.0001519
Mean motion
14.85916047 rev/d
Perigee alt
609.7 km
Apogee alt
611.8 km
Semi-major
6,988.8 km
B*
5.1055e-5
RAAN
260.6916°
Arg perigee
151.9314°
Mean anomaly
208.1984°
Rev number
3,750

§ Raw data

AETHER-91 67380U 26004T   26263.94101740  .00000392  00000+0  51055-4 0  99942 67380  97.8073 260.6916 0001519 151.9314 208.1984 14.85916047 37502

JSON: /api/v1/satellites/67380 · /tle

For live sub-satellite position, see the globe view (requires WebGL).

§ Visibility from observer

Set your observer location to see the next 7 days of passes ≥ 10°. The values pass through the URL so the page stays shareable.

No JS? Fill the form by hand. The geolocation button needs JavaScript.